Torna al catalogo

FENGYUN 1C DEB

AttivoPO
NORAD 30207·DEBRIS·🇨🇳 China

Lanciato May 10, 1999 da Taiyuan Satellite Launch Center

Loading…

Prossimi Passaggi (prossime 24 ore)

TLE

AggiornatoSource: Space-Track

Epoca: Sep 14, 2026, 05:00 UTC

1 30207U 99025VQ  26257.20839237  .00000164  00000-0  15129-3 0  9995
2 30207  98.5804 347.2814 0260804 123.2532 268.4109 13.79266124988607

Traccia FENGYUN 1C DEB in tempo reale con AllMySat

Download on the App Store